LX0WX-13 Weather Reports


time (UTC)temp
C
wind
direction
speed
KPH
gust
KPH
rain 1hr
cm
rain 24hr
cm
rain mn
cm
humidity
%
barometer
mb
20260507150546 12 157 0.0 0.0 0.00 0.00 0.00 66 1011.2
20260507150046 12 157 0.0 0.0 0.00 0.00 0.00 66 1011.3
20260507145546 12 157 0.0 0.0 0.00 0.00 0.00 66 1011.2
20260507145046 12 157 0.0 0.0 0.00 0.00 0.00 67 1011.0
20260507144546 12 157 0.0 1.6 0.00 0.00 0.00 68 1011.1
20260507144046 12 157 1.6 4.8 0.00 0.00 0.00 68 1011.1
20260507143546 12 157 0.0 4.8 0.00 0.00 0.00 69 1011.1
20260507143046 12 157 0.0 0.0 0.00 0.00 0.00 70 1011.1
20260507142546 12 135 0.0 0.0 0.00 0.00 0.00 70 1011.2
20260507142046 12 90 0.0 0.0 0.00 0.00 0.00 71 1011.3
20260507141546 11 90 0.0 0.0 0.00 0.00 0.00 72 1011.1
20260507141046 11 90 0.0 0.0 0.00 0.00 0.00 72 1011.1
20260507140546 11 90 0.0 0.0 0.00 0.00 0.00 72 1011.2
20260507140046 11 90 0.0 0.0 0.00 0.00 0.00 72 1011.3
20260507135546 11 90 0.0 0.0 0.00 0.00 0.00 71 1011.4
20260507135046 11 90 0.0 0.0 0.00 0.00 0.00 71 1011.3
20260507134546 11 90 0.0 0.0 0.00 0.00 0.00 71 1011.0
20260507134046 11 90 0.0 0.0 0.00 0.00 0.00 71 1011.0
20260507133546 11 90 0.0 0.0 0.00 0.00 0.00 70 1011.2
20260507133046 11 90 0.0 0.0 0.00 0.00 0.00 70 1011.2
20260507132046 11 90 0.0 0.0 0.00 0.00 0.00 69 1011.2
20260507131546 11 90 0.0 0.0 0.00 0.00 0.00 68 1011.2
20260507131046 11 90 0.0 0.0 0.00 0.00 0.00 67 1011.3
20260507130546 11 90 0.0 0.0 0.00 0.00 0.00 66 1011.3
20260507130046 11 90 0.0 0.0 0.00 0.00 0.00 64 1011.3
20260507125546 11 90 0.0 0.0 0.00 0.00 0.00 64 1011.3
20260507125046 11 90 0.0 1.6 0.00 0.00 0.00 64 1011.3
20260507124546 11 90 0.0 0.0 0.00 0.00 0.00 63 1011.1
20260507124046 11 90 0.0 4.8 0.00 0.00 0.00 63 1011.1
20260507123546 11 22 0.0 4.8 0.00 0.00 0.00 62 1011.2
20260507123046 12 45 0.0 3.2 0.00 0.00 0.00 61 1011.1
20260507122546 12 112 0.0 4.8 0.00 0.00 0.00 60 1011.1
20260507122046 12 0 0.0 3.2 0.00 0.00 0.00 60 1011.0
20260507121546 12 0 0.0 4.8 0.00 0.00 0.00 59 1010.9
20260507121046 12 315 0.0 12.9 0.00 0.00 0.00 58 1010.9
20260507120546 13 0 3.2 8.0 0.00 0.00 0.00 60 1011.0
20260507120046 13 67 0.0 1.6 0.00 0.00 0.00 60 1010.9
20260507115546 13 0 0.0 3.2 0.00 0.00 0.00 59 1010.9
20260507115046 13 0 0.0 6.4 0.00 0.00 0.00 60 1011.0
20260507114546 13 22 3.2 8.0 0.00 0.00 0.00 60 1010.9
20260507114046 13 0 0.0 3.2 0.00 0.00 0.00 63 1010.9
20260507113546 12 0 0.0 4.8 0.00 0.00 0.00 63 1010.8
20260507113046 12 0 3.2 4.8 0.00 0.00 0.00 64 1010.9
20260507112546 12 0 1.6 3.2 0.00 0.00 0.00 64 1010.8
20260507112046 12 22 0.0 3.2 0.00 0.00 0.00 66 1010.9
20260507111546 11 112 0.0 0.0 0.00 0.00 0.00 67 1010.8
20260507111046 11 112 0.0 3.2 0.00 0.00 0.00 68 1011.0
20260507110546 11 112 3.2 3.2 0.00 0.00 0.00 68 1010.7
20260507110046 11 67 1.6 1.6 0.00 0.00 0.00 69 1010.9
20260507105546 10 67 0.0 0.0 0.00 0.00 0.00 69 1010.8
20260507105046 10 67 0.0 0.0 0.00 0.00 0.00 68 1010.9
20260507104546 10 67 0.0 0.0 0.00 0.00 0.00 67 1010.9
20260507104046 11 67 0.0 3.2 0.00 0.00 0.00 67 1010.9
20260507103546 11 67 0.0 4.8 0.00 0.00 0.00 66 1010.9
20260507103046 11 22 0.0 4.8 0.00 0.00 0.00 66 1010.8
20260507102546 11 135 1.6 3.2 0.00 0.00 0.00 68 1010.7
20260507102046 11 112 0.0 4.8 0.00 0.00 0.00 69 1010.6
20260507101546 11 90 0.0 3.2 0.00 0.00 0.00 70 1010.8
20260507101046 10 67 3.2 3.2 0.00 0.00 0.00 69 1010.6
20260507100546 10 22 0.0 6.4 0.00 0.00 0.00 68 1010.8
20260507100046 10 0 3.2 8.0 0.00 0.00 0.00 67 1010.8
20260507095546 11 0 6.4 8.0 0.00 0.00 0.00 66 1010.5
20260507095046 11 0 6.4 9.7 0.00 0.00 0.00 65 1010.7
20260507094546 11 337 9.7 9.7 0.00 0.00 0.00 66 1010.6
20260507094046 11 22 8.0 8.0 0.00 0.00 0.00 68 1010.4
20260507093546 11 0 3.2 9.7 0.00 0.00 0.00 68 1010.5
20260507093046 11 0 3.2 11.3 0.00 0.00 0.00 69 1010.4
20260507092546 11 337 11.3 11.3 0.00 0.00 0.00 69 1010.4
20260507092046 11 337 6.4 14.5 0.00 0.00 0.00 69 1010.2
20260507091546 10 0 4.8 9.7 0.00 0.00 0.00 69 1010.3
20260507091046 11 0 4.8 11.3 0.00 0.00 0.00 70 1010.3
20260507090546 10 0 4.8 11.3 0.00 0.00 0.00 70 1010.1
20260507090046 10 22 0.0 9.7 0.00 0.00 0.00 69 1010.2
20260507085546 11 337 8.0 11.3 0.00 0.00 0.00 69 1010.0
20260507085046 11 22 6.4 11.3 0.00 0.00 0.00 71 1010.0
20260507084546 11 0 3.2 12.9 0.00 0.00 0.00 72 1009.8
20260507084046 10 0 9.7 12.9 0.00 0.00 0.00 73 1009.9
20260507083546 10 0 11.3 12.9 0.00 0.00 0.00 74 1009.9
20260507083047 10 0 6.4 19.3 0.00 0.00 0.00 74 1009.7
20260507082546 10 337 16.1 16.1 0.00 0.00 0.00 74 1009.9
20260507082046 10 0 11.3 19.3 0.00 0.00 0.00 74 1009.9
20260507081546 10 22 9.7 16.1 0.00 0.00 0.00 75 1009.8
20260507081046 10 0 12.9 16.1 0.00 0.00 0.00 76 1009.7
20260507080546 9 337 11.3 19.3 0.00 0.00 0.00 77 1009.7
20260507080046 8 0 14.5 16.1 0.00 0.00 0.00 79 1009.7
20260507075546 8 337 16.1 27.4 0.00 0.00 0.00 79 1009.5
20260507075046 8 337 16.1 27.4 0.00 0.00 0.00 80 1009.6
20260507074547 8 0 14.5 22.5 0.00 0.00 0.00 82 1009.5
20260507074047 8 337 17.7 19.3 0.00 0.00 0.00 83 1009.4
20260507073547 8 337 12.9 14.5 0.00 0.00 0.00 85 1009.4
20260507073047 7 0 11.3 17.7 0.00 0.00 0.00 86 1009.4
20260507072547 7 337 17.7 22.5 0.00 0.00 0.00 87 1009.3
20260507072047 7 337 12.9 12.9 0.00 0.00 0.00 88 1009.3
20260507071547 7 337 14.5 19.3 0.00 0.00 0.00 88 1009.2
20260507071047 6 337 9.7 19.3 0.00 0.00 0.00 89 1009.1
20260507070547 6 337 16.1 20.9 0.00 0.00 0.00 89 1009.1
20260507070047 6 0 14.5 25.7 0.00 0.00 0.00 89 1009.1
20260507065547 6 337 16.1 16.1 0.00 0.00 0.00 90 1009.0
20260507065047 6 337 14.5 17.7 0.00 0.00 0.00 90 1009.2
20260507064547 6 337 16.1 19.3 0.00 0.00 0.00 91 1009.2
20260507064047 6 337 16.1 19.3 0.00 0.00 0.00 91 1009.1
20260507063547 6 0 12.9 17.7 0.00 0.00 0.00 92 1009.0
20260507063047 6 337 11.3 16.1 0.00 0.00 0.00 93 1009.2
20260507062547 6 337 14.5 17.7 0.00 0.00 0.00 93 1009.1
20260507062047 5 337 11.3 19.3 0.00 0.00 0.00 93 1009.0
20260507061547 5 0 6.4 11.3 0.00 0.00 0.00 96 1009.0
20260507061047 5 337 9.7 14.5 0.00 0.00 0.00 96 1009.0
20260507060547 5 0 11.3 14.5 0.00 0.05 0.00 96 1009.0
20260507060047 5 337 9.7 12.9 0.00 0.05 0.00 96 1009.0
20260507055547 5 337 12.9 17.7 0.00 0.05 0.00 96 1008.8
20260507055047 5 0 16.1 16.1 0.00 0.05 0.00 96 1008.8
20260507054547 5 0 9.7 16.1 0.00 0.05 0.00 96 1008.6
20260507054047 5 337 8.0 17.7 0.00 0.05 0.00 96 1008.8
20260507053547 5 0 8.0 12.9 0.00 0.05 0.00 96 1008.7
20260507053047 5 0 11.3 14.5 0.00 0.05 0.00 96 1008.6
20260507052547 5 0 4.8 14.5 0.00 0.05 0.00 96 1008.5
20260507052047 5 0 9.7 16.1 0.00 0.05 0.00 96 1008.5
20260507051547 5 337 11.3 16.1 0.00 0.05 0.00 96 1008.3
20260507051047 5 337 11.3 16.1 0.00 0.05 0.00 96 1008.2
20260507050547 5 337 16.1 16.1 0.00 0.10 0.00 96 1008.1
20260507050047 5 0 9.7 16.1 0.00 0.10 0.00 96 1008.0
20260507045547 5 0 9.7 16.1 0.00 0.10 0.00 96 1008.0
20260507045047 5 0 12.9 16.1 0.00 0.10 0.00 96 1007.9
20260507044547 5 0 9.7 12.9 0.00 0.10 0.00 96 1008.0
20260507044047 5 0 9.7 16.1 0.00 0.10 0.00 96 1007.8
20260507043547 5 337 12.9 16.1 0.00 0.10 0.00 96 1008.0
20260507043047 5 0 11.3 12.9 0.00 0.10 0.00 96 1008.0
20260507042547 5 337 11.3 12.9 0.00 0.10 0.00 96 1007.9
20260507042047 5 337 8.0 14.5 0.00 0.10 0.00 96 1007.9
20260507041547 5 337 14.5 14.5 0.00 0.10 0.00 96 1007.9
20260507041047 5 337 12.9 16.1 0.00 0.10 0.00 96 1007.7
20260507040547 5 337 9.7 14.5 0.00 0.10 0.00 96 1007.7
20260507040047 5 0 6.4 11.3 0.00 0.10 0.00 96 1007.7
20260507035547 5 337 9.7 11.3 0.00 0.10 0.00 96 1007.6
20260507035047 5 337 9.7 14.5 0.00 0.10 0.00 96 1007.5
20260507034548 5 0 8.0 14.5 0.00 0.10 0.00 96 1007.6
20260507034047 5 0 6.4 9.7 0.00 0.10 0.00 96 1007.6
20260507033547 5 0 4.8 11.3 0.00 0.10 0.00 96 1007.5
20260507033047 5 337 9.7 14.5 0.00 0.10 0.00 96 1007.5
20260507032547 5 337 9.7 11.3 0.00 0.10 0.00 96 1007.3
20260507032047 5 337 6.4 14.5 0.00 0.10 0.00 96 1007.6
20260507031547 5 315 8.0 12.9 0.00 0.10 0.00 96 1007.5
20260507031047 5 0 8.0 12.9 0.00 0.10 0.00 96 1007.4
20260507030547 5 0 6.4 11.3 0.00 0.15 0.00 96 1007.4
20260507030047 5 337 6.4 12.9 0.00 0.15 0.00 96 1007.3
20260507025547 5 0 8.0 9.7 0.00 0.15 0.00 96 1007.2
20260507025047 5 337 8.0 12.9 0.00 0.15 0.00 96 1007.2
20260507024547 5 337 4.8 11.3 0.00 0.15 0.00 96 1007.2
20260507024047 5 337 4.8 9.7 0.00 0.15 0.00 96 1007.3
20260507023547 5 0 9.7 9.7 0.00 0.15 0.00 96 1007.3
20260507023047 5 337 6.4 12.9 0.00 0.15 0.00 96 1007.2
20260507022547 5 0 9.7 11.3 0.00 0.15 0.00 96 1007.2
20260507022047 5 337 8.0 11.3 0.00 0.15 0.00 96 1007.2
20260507021547 5 337 4.8 11.3 0.00 0.15 0.00 96 1007.2
20260507021047 5 337 9.7 11.3 0.00 0.15 0.00 96 1007.1
20260507020547 5 337 6.4 12.9 0.00 0.15 0.00 96 1007.1
20260507020047 5 0 9.7 12.9 0.00 0.15 0.00 96 1007.1
20260507015547 5 337 8.0 11.3 0.00 0.15 0.00 96 1007.1
20260507015047 5 337 4.8 9.7 0.00 0.15 0.00 96 1007.0
20260507014547 5 337 9.7 12.9 0.00 0.15 0.00 96 1007.0
20260507014047 5 337 6.4 12.9 0.00 0.15 0.00 96 1007.0
20260507013547 5 337 6.4 9.7 0.00 0.15 0.00 96 1007.0
20260507013047 5 315 6.4 11.3 0.00 0.15 0.00 96 1007.0
20260507012547 5 337 9.7 12.9 0.00 0.15 0.00 96 1007.0
20260507012048 5 337 11.3 12.9 0.00 0.15 0.00 96 1007.1
20260507011547 5 337 9.7 12.9 0.00 0.15 0.00 96 1007.0
20260507011047 5 337 8.0 11.3 0.00 0.15 0.00 96 1007.0
20260507010547 5 337 4.8 14.5 0.00 0.20 0.00 96 1007.0
20260507010047 5 315 6.4 9.7 0.00 0.20 0.00 96 1006.7
20260507005547 5 337 3.2 11.3 0.00 0.20 0.00 96 1006.9
20260507005047 5 315 6.4 9.7 0.00 0.20 0.00 96 1006.7
20260507004547 5 337 9.7 9.7 0.00 0.20 0.00 96 1006.8
20260507004047 5 315 9.7 9.7 0.00 0.20 0.00 96 1006.8
20260507003547 5 337 3.2 8.0 0.00 0.20 0.00 96 1006.6
20260507003047 5 337 6.4 9.7 0.00 0.20 0.00 96 1006.6
20260507002547 5 337 4.8 9.7 0.00 0.20 0.00 96 1006.7
20260507002048 5 337 6.4 8.0 0.00 0.20 0.00 93 1006.6
20260507001548 5 0 3.2 8.0 0.00 0.20 0.00 96 1006.6
20260507001048 5 337 3.2 12.9 0.00 0.20 0.00 96 1006.5
20260507000548 5 337 11.3 14.5 0.00 0.51 0.00 93 1006.5
20260507000048 5 337 9.7 12.9 0.00 0.51 0.00 93 1006.4
20260506235548 5 337 8.0 12.9 0.00 0.51 0.00 93 1006.6
20260506235048 5 0 11.3 14.5 0.00 0.51 0.00 93 1006.4
20260506234548 5 0 8.0 11.3 0.00 0.51 0.00 93 1006.5
20260506234048 5 337 8.0 11.3 0.00 0.51 0.00 93 1006.5
20260506233548 5 0 9.7 11.3 0.00 0.51 0.00 93 1006.6
20260506233048 5 337 11.3 11.3 0.00 0.51 0.00 93 1006.5
20260506232548 5 0 4.8 11.3 0.00 0.51 0.00 93 1006.6
20260506232048 5 337 8.0 9.7 0.00 0.51 0.00 93 1006.6
20260506231548 5 0 6.4 12.9 0.00 0.51 0.00 93 1006.6
20260506231048 5 337 9.7 12.9 0.00 0.51 0.00 92 1006.6
20260506230548 5 0 11.3 14.5 0.00 0.56 0.00 92 1006.3
20260506230048 5 337 12.9 16.1 0.00 0.56 0.00 92 1006.4
20260506225548 5 337 12.9 16.1 0.00 0.56 0.00 92 1006.6
20260506225048 5 0 4.8 14.5 0.00 0.56 0.00 92 1006.4
20260506224548 5 0 14.5 14.5 0.00 0.56 0.00 92 1006.4
20260506224048 5 0 9.7 14.5 0.00 0.56 0.00 92 1006.5
20260506223548 5 0 6.4 9.7 0.00 0.56 0.00 92 1006.6
20260506223048 5 0 8.0 12.9 0.00 0.56 0.00 92 1006.4
20260506222548 5 0 11.3 14.5 0.00 0.56 0.00 92 1006.3
20260506222048 5 337 14.5 14.5 0.00 0.56 0.00 92 1006.4
20260506221548 5 337 12.9 12.9 0.00 0.56 0.00 92 1006.2
20260506221048 5 337 6.4 11.3 0.00 0.56 0.00 92 1006.4
20260506220548 5 337 6.4 11.3 0.00 0.56 0.00 92 1006.1
20260506220048 5 337 8.0 16.1 0.00 0.56 0.00 92 1006.0
20260506215548 5 337 12.9 14.5 0.00 0.56 0.00 92 1006.0
20260506215048 5 337 12.9 16.1 0.00 0.56 0.00 92 1006.0
20260506214548 5 337 8.0 12.9 0.00 0.56 0.00 92 1005.8
20260506214048 5 337 9.7 16.1 0.00 0.56 0.00 92 1005.7
20260506213548 5 0 8.0 14.5 0.00 0.56 0.00 91 1005.8
20260506213048 5 0 14.5 16.1 0.00 0.56 0.00 91 1005.6
20260506212548 5 0 11.3 19.3 0.00 0.56 0.00 91 1005.5
20260506212048 5 315 11.3 16.1 0.00 0.56 0.00 91 1005.5
20260506211548 5 337 16.1 19.3 0.00 0.56 0.00 91 1005.3
20260506211048 5 0 16.1 17.7 0.00 0.56 0.00 91 1005.3
20260506210548 5 337 16.1 20.9 0.00 0.66 0.00 91 1005.4
20260506210048 5 337 24.1 24.1 0.00 0.66 0.00 91 1005.4
20260506205548 5 337 19.3 20.9 0.00 0.66 0.00 91 1005.6
20260506205048 5 0 19.3 25.7 0.00 0.66 0.00 91 1005.4
20260506204548 5 0 17.7 24.1 0.00 0.66 0.00 91 1005.5
20260506204048 5 0 19.3 22.5 0.00 0.66 0.00 91 1005.5
20260506203548 6 337 22.5 22.5 0.00 0.66 0.00 90 1005.4
20260506203048 6 0 14.5 14.5 0.00 0.66 0.00 90 1005.5
20260506202548 6 0 12.9 12.9 0.00 0.66 0.00 90 1005.6
20260506202048 6 0 9.7 12.9 0.00 0.66 0.00 90 1005.6
20260506201548 6 0 9.7 16.1 0.00 0.66 0.00 90 1005.5
20260506201048 6 337 16.1 17.7 0.00 0.66 0.00 90 1005.4
20260506200548 6 0 11.3 16.1 0.00 0.66 0.00 90 1005.3
20260506200048 6 22 14.5 19.3 0.00 0.66 0.00 90 1005.3
20260506195548 6 337 9.7 14.5 0.00 0.66 0.00 89 1005.3
20260506195048 6 0 11.3 17.7 0.00 0.66 0.00 90 1005.2
20260506194548 6 0 16.1 17.7 0.00 0.66 0.00 89 1005.1
20260506194048 6 0 14.5 19.3 0.00 0.66 0.00 89 1005.0
20260506193548 6 0 9.7 19.3 0.00 0.66 0.00 89 1005.0
20260506193048 6 337 14.5 19.3 0.00 0.66 0.00 89 1004.9
20260506192548 6 337 12.9 17.7 0.00 0.66 0.00 89 1004.9
20260506192048 6 337 9.7 16.1 0.00 0.66 0.00 89 1004.8
20260506191548 6 0 8.0 14.5 0.00 0.66 0.00 88 1004.9
20260506191048 6 0 8.0 19.3 0.00 0.66 0.00 88 1004.6
20260506190548 6 0 14.5 20.9 0.00 0.76 0.00 88 1004.5
20260506190048 6 337 12.9 19.3 0.00 0.76 0.00 88 1004.4
20260506185548 6 337 11.3 19.3 0.00 0.76 0.00 88 1004.3
20260506185048 6 337 17.7 19.3 0.00 0.76 0.00 87 1004.2
20260506184548 6 337 14.5 24.1 0.00 0.76 0.00 87 1004.2
20260506184048 6 0 11.3 29.0 0.00 0.76 0.00 87 1004.1
20260506183548 6 337 14.5 22.5 0.00 0.76 0.00 87 1004.1
20260506183048 6 0 22.5 24.1 0.00 0.76 0.00 87 1004.0
20260506182548 6 0 14.5 24.1 0.00 0.76 0.00 86 1003.9
20260506182048 6 337 20.9 22.5 0.00 0.76 0.00 86 1004.0
20260506181548 6 337 14.5 24.1 0.00 0.76 0.00 86 1003.8
20260506181048 7 337 24.1 24.1 0.00 0.76 0.00 86 1004.0
20260506180548 7 0 14.5 25.7 0.00 0.76 0.00 85 1003.9
20260506180048 7 0 17.7 20.9 0.00 0.76 0.00 85 1004.1
20260506175548 7 0 17.7 22.5 0.00 0.76 0.00 85 1004.0
20260506175048 7 0 12.9 20.9 0.00 0.76 0.00 85 1003.9
20260506174548 7 0 17.7 24.1 0.00 0.76 0.00 85 1003.9
20260506174048 7 0 22.5 22.5 0.00 0.76 0.00 85 1003.8
20260506173548 7 0 12.9 20.9 0.00 0.76 0.00 85 1003.9
20260506173048 7 337 20.9 22.5 0.00 0.76 0.00 84 1003.8
20260506172548 7 337 16.1 19.3 0.00 0.76 0.00 84 1003.8
20260506172048 7 337 19.3 20.9 0.00 0.76 0.00 84 1004.0
20260506171548 7 337 19.3 19.3 0.00 0.76 0.00 84 1003.9
20260506171049 7 337 16.1 19.3 0.00 0.76 0.00 84 1003.9
20260506170549 8 337 17.7 19.3 0.00 0.81 0.00 84 1003.9
20260506170049 8 0 12.9 16.1 0.00 0.81 0.00 82 1003.9
20260506165549 8 0 14.5 22.5 0.00 0.81 0.00 82 1003.9
20260506165049 8 337 19.3 20.9 0.00 0.81 0.00 81 1003.8
20260506164549 8 337 17.7 20.9 0.00 0.81 0.00 80 1003.7
20260506164049 8 0 20.9 27.4 0.00 0.81 0.00 80 1003.8
20260506163549 8 0 12.9 25.7 0.00 0.81 0.00 80 1003.7
20260506163049 8 337 16.1 24.1 0.00 0.81 0.00 81 1003.6
20260506162549 8 0 11.3 22.5 0.00 0.81 0.00 80 1003.7
20260506162049 8 0 16.1 20.9 0.00 0.81 0.00 81 1003.6
20260506161549 9 337 16.1 25.7 0.00 0.81 0.00 80 1003.7
20260506161049 8 337 17.7 20.9 0.00 0.81 0.00 81 1003.7
20260506160549 9 0 20.9 24.1 0.00 0.86 0.00 82 1003.5
20260506160049 9 0 17.7 27.4 0.00 0.86 0.00 81 1003.7
20260506155549 9 337 27.4 27.4 0.00 0.86 0.00 82 1003.6
20260506155049 9 0 17.7 25.7 0.00 0.86 0.00 82 1003.5
20260506154549 9 337 20.9 20.9 0.00 0.86 0.00 82 1003.5
20260506154049 9 337 16.1 22.5 0.00 0.86 0.00 83 1003.3
20260506153549 9 0 20.9 27.4 0.00 0.86 0.00 83 1003.3
20260506153049 9 337 11.3 25.7 0.00 0.86 0.00 84 1003.4
20260506152549 9 337 20.9 25.7 0.00 0.86 0.00 85 1003.4
20260506152050 8 337 22.5 22.5 0.00 0.86 0.00 86 1003.3
20260506151549 8 337 17.7 25.7 0.00 0.86 0.00 85 1003.3
20260506151049 8 337 12.9 29.0 0.00 0.86 0.00 85 1003.4